Starlink 31324

operational
NORAD ID: 58976 Int'l Des: 2024-031 Owner: SPXS Country: US Constellation: starlink
LEOCIRCULAR

关于 Starlink 31324

正在加载描述...

实时位置

正在加载3D地球...

即将过境

高度历史

Altitude vs Time

uPlot chart will show altitude changes over time

两行轨道根数

1 58976U 24031M 25258.58988087 .00001290 00000-0 55675-4 0 9994
2 58976 53.1622 30.0821 0001076 66.5917 293.5196 15.30202461 89701
Epoch: Sep 15, 2025 • Age: 12 hours

当前状态

高度 479.0 km
速度 7.63 km/s
星下点 42.96°N, 143.76°E
发射日期 Feb 15, 2024
运行时间 1.5 years
类型 internet

技术详情

分类 Payload
质量 730.00 kg
干质量 700.00 kg
总质量 730.00 kg
长度 0.30 m
直径 4.10 m
跨度 29.00 m
形状 Box + pan
制造商 SPXS
平台类型 Starlink V2M
阶段状态 In Orbit
所有者/国家 SPXS/US

大型星座

Loading constellations...